Time,TemperatureF,DewpointF,PressureIn,WindDirection,WindDirectionDegrees,WindSpeedMPH,WindSpeedGustMPH,Humidity,HourlyPrecipIn,Conditions,Clouds,dailyrainin,SoftwareType,DateUTC
2013-08-06 00:01:00,64.8,60.8,29.77,WNW,299,0.0,1.0,87,0.00,,SCT120,0.00,VWS V14.01,2013-08-06 05:01:00,
2013-08-06 00:06:00,64.5,60.5,29.78,WNW,287,0.0,1.0,87,0.00,,SCT120,0.00,VWS V14.01,2013-08-06 05:06:00,
2013-08-06 00:11:00,64.1,60.5,29.77,WNW,284,0.0,1.0,88,0.00,,SCT120,0.00,VWS V14.01,2013-08-06 05:11:00,
2013-08-06 00:16:00,64.0,60.1,29.78,WNW,300,2.0,3.0,87,0.00,,CLR,0.00,VWS V14.01,2013-08-06 05:16:00,
2013-08-06 00:21:00,63.9,60.0,29.78,NW,305,2.0,3.0,87,0.00,,SCT120,0.00,VWS V14.01,2013-08-06 05:21:00,
2013-08-06 00:26:00,63.8,59.5,29.78,West,262,1.0,3.0,86,0.00,,SCT120,0.00,VWS V14.01,2013-08-06 05:26:00,
2013-08-06 00:31:00,63.7,59.4,29.78,WNW,283,1.0,2.0,86,0.00,,SCT120,0.00,VWS V14.01,2013-08-06 05:31:00,
2013-08-06 00:36:00,63.6,59.3,29.78,WNW,291,2.0,2.0,86,0.00,,SCT120,0.00,VWS V14.01,2013-08-06 05:36:00,
2013-08-06 00:41:00,63.6,59.0,29.78,West,267,1.0,3.0,85,0.00,,SCT120,0.00,VWS V14.01,2013-08-06 05:41:00,
2013-08-06 00:46:00,63.4,58.8,29.77,West,278,0.0,3.0,85,0.00,,SCT120,0.00,VWS V14.01,2013-08-06 05:46:00,
2013-08-06 00:51:00,63.1,58.8,29.76,WNW,290,0.0,3.0,86,0.00,,SCT120,0.00,VWS V14.01,2013-08-06 05:51:00,
2013-08-06 00:56:00,62.8,58.9,29.77,West,276,0.0,3.0,87,0.00,,SCT120,0.00,VWS V14.01,2013-08-06 05:56:00,
2013-08-06 01:01:00,62.5,58.6,29.77,WNW,290,1.0,1.0,87,0.00,,SCT120,0.00,VWS V14.01,2013-08-06 06:01:00,
2013-08-06 01:06:00,62.1,58.5,29.76,WNW,287,0.0,1.0,88,0.00,,SCT120,0.00,VWS V14.01,2013-08-06 06:06:00,
2013-08-06 01:11:00,61.8,58.5,29.77,WNW,283,1.0,1.0,89,0.00,,SCT120,0.00,VWS V14.01,2013-08-06 06:11:00,
2013-08-06 01:16:00,61.4,58.1,29.77,West,281,0.0,1.0,89,0.00,,SCT120,0.00,VWS V14.01,2013-08-06 06:16:00,
2013-08-06 01:21:00,61.2,57.9,29.76,WNW,290,0.0,1.0,89,0.00,,SCT120,0.00,VWS V14.01,2013-08-06 06:21:00,
2013-08-06 01:26:00,61.0,57.7,29.76,WNW,292,0.0,1.0,89,0.00,,SCT120,0.00,VWS V14.01,2013-08-06 06:26:00,
2013-08-06 01:31:00,60.7,57.4,29.76,WNW,293,0.0,1.0,89,0.00,,BKN095,0.00,VWS V14.01,2013-08-06 06:31:00,
2013-08-06 01:36:00,60.5,57.6,29.77,WNW,292,0.0,1.0,90,0.00,,BKN120,0.00,VWS V14.01,2013-08-06 06:36:00,
2013-08-06 01:41:00,60.3,57.4,29.77,WNW,292,0.0,1.0,90,0.00,,BKN120,0.00,VWS V14.01,2013-08-06 06:41:00,
2013-08-06 01:46:00,60.1,57.2,29.76,WNW,290,1.0,2.0,90,0.00,,BKN120,0.00,VWS V14.01,2013-08-06 06:46:00,
2013-08-06 01:51:00,59.9,57.0,29.76,West,270,1.0,2.0,90,0.00,,SCT120,0.00,VWS V14.01,2013-08-06 06:51:00,
2013-08-06 01:56:00,59.7,56.8,29.76,WNW,283,0.0,2.0,90,0.00,,BKN095,0.00,VWS V14.01,2013-08-06 06:56:00,
2013-08-06 02:01:00,59.5,56.9,29.77,WNW,287,1.0,1.0,91,0.00,,SCT120,0.00,VWS V14.01,2013-08-06 07:01:00,
2013-08-06 02:06:00,59.3,56.7,29.77,WNW,285,0.0,1.0,91,0.00,,SCT120,0.00,VWS V14.01,2013-08-06 07:06:00,
2013-08-06 02:11:00,59.1,56.5,29.77,WNW,284,1.0,1.0,91,0.00,,SCT120,0.00,VWS V14.01,2013-08-06 07:11:00,
2013-08-06 02:16:00,58.9,56.3,29.77,West,281,1.0,1.0,91,0.00,,BKN095,0.00,VWS V14.01,2013-08-06 07:16:00,
2013-08-06 02:21:00,58.8,56.5,29.77,WNW,283,1.0,2.0,92,0.00,,SCT120,0.00,VWS V14.01,2013-08-06 07:21:00,
2013-08-06 02:26:00,58.7,56.4,29.76,West,280,0.0,2.0,92,0.00,,SCT120,0.00,VWS V14.01,2013-08-06 07:26:00,
2013-08-06 02:31:00,58.6,56.3,29.76,WNW,284,0.0,1.0,92,0.00,,SCT120,0.00,VWS V14.01,2013-08-06 07:31:00,
2013-08-06 02:36:00,58.5,56.2,29.76,WNW,287,0.0,1.0,92,0.00,,BKN120,0.00,VWS V14.01,2013-08-06 07:36:00,
2013-08-06 02:41:00,58.4,56.1,29.76,WNW,287,0.0,1.0,92,0.00,,BKN120,0.00,VWS V14.01,2013-08-06 07:41:00,
2013-08-06 02:46:00,58.3,56.0,29.76,West,276,1.0,2.0,92,0.00,,BKN120,0.00,VWS V14.01,2013-08-06 07:46:00,
2013-08-06 02:51:00,58.2,55.9,29.75,West,275,1.0,2.0,92,0.00,,BKN120,0.00,VWS V14.01,2013-08-06 07:51:00,
2013-08-06 02:56:00,58.1,55.8,29.75,West,276,0.0,2.0,92,0.00,,SCT120,0.00,VWS V14.01,2013-08-06 07:56:00,
2013-08-06 03:01:00,57.9,55.6,29.74,West,269,0.0,1.0,92,0.00,,BKN120,0.00,VWS V14.01,2013-08-06 08:01:00,
2013-08-06 03:06:00,57.6,55.6,29.74,West,269,0.0,1.0,93,0.00,,BKN120,0.00,VWS V14.01,2013-08-06 08:06:00,
2013-08-06 03:11:00,57.6,55.6,29.74,West,274,1.0,2.0,93,0.00,,BKN120,0.00,VWS V14.01,2013-08-06 08:11:00,
2013-08-06 03:16:00,57.5,55.5,29.75,West,277,0.0,2.0,93,0.00,,SCT120,0.00,VWS V14.01,2013-08-06 08:16:00,
2013-08-06 03:21:00,57.2,55.2,29.75,West,281,0.0,2.0,93,0.00,,BKN120,0.00,VWS V14.01,2013-08-06 08:21:00,
2013-08-06 03:26:00,57.1,55.4,29.75,West,269,1.0,2.0,94,0.00,,BKN120,0.00,VWS V14.01,2013-08-06 08:26:00,
2013-08-06 03:31:00,57.1,55.4,29.75,WSW,248,2.0,3.0,94,0.00,,BKN120,0.00,VWS V14.01,2013-08-06 08:31:00,
2013-08-06 03:36:00,56.9,55.2,29.76,West,266,1.0,3.0,94,0.00,,BKN120,0.00,VWS V14.01,2013-08-06 08:36:00,
2013-08-06 03:41:00,56.7,55.0,29.76,West,273,1.0,3.0,94,0.00,,BKN120,0.00,VWS V14.01,2013-08-06 08:41:00,
2013-08-06 03:46:00,56.5,54.8,29.77,West,263,1.0,3.0,94,0.00,,BKN120,0.00,VWS V14.01,2013-08-06 08:46:00,
2013-08-06 03:51:00,56.5,54.8,29.76,West,270,1.0,3.0,94,0.00,,BKN110,0.00,VWS V14.01,2013-08-06 08:51:00,
2013-08-06 03:56:00,56.5,55.1,29.75,SW,229,0.0,3.0,95,0.00,,BKN120,0.00,VWS V14.01,2013-08-06 08:56:00,
2013-08-06 04:01:00,56.3,54.6,29.76,WSW,244,0.0,1.0,94,0.00,,BKN110,0.00,VWS V14.01,2013-08-06 09:01:00,
2013-08-06 04:06:00,56.3,54.9,29.76,West,272,1.0,3.0,95,0.00,,BKN110,0.00,VWS V14.01,2013-08-06 09:06:00,
2013-08-06 04:11:00,56.3,54.9,29.76,West,267,0.0,3.0,95,0.00,,BKN110,0.00,VWS V14.01,2013-08-06 09:11:00,
2013-08-06 04:16:00,56.3,54.9,29.75,West,263,0.0,3.0,95,0.00,,BKN120,0.00,VWS V14.01,2013-08-06 09:16:00,
2013-08-06 04:21:00,56.3,54.9,29.76,West,266,1.0,3.0,95,0.00,,BKN110,0.00,VWS V14.01,2013-08-06 09:21:00,
2013-08-06 04:26:00,56.3,54.9,29.76,West,276,2.0,3.0,95,0.00,,BKN110,0.00,VWS V14.01,2013-08-06 09:26:00,
2013-08-06 04:31:00,56.1,54.7,29.75,West,276,0.0,1.0,95,0.00,,BKN110,0.00,VWS V14.01,2013-08-06 09:31:00,
2013-08-06 04:36:00,56.1,54.7,29.75,West,277,1.0,1.0,95,0.00,,BKN110,0.00,VWS V14.01,2013-08-06 09:36:00,
2013-08-06 04:41:00,56.2,54.8,29.75,West,281,0.0,2.0,95,0.00,,BKN110,0.00,VWS V14.01,2013-08-06 09:41:00,
2013-08-06 04:46:00,56.2,54.8,29.75,West,280,0.0,2.0,95,0.00,,BKN110,0.00,VWS V14.01,2013-08-06 09:46:00,
2013-08-06 04:51:00,56.1,54.7,29.75,West,280,0.0,2.0,95,0.00,,SCT110,0.00,VWS V14.01,2013-08-06 09:51:00,
2013-08-06 04:56:00,56.1,54.7,29.75,West,280,0.0,2.0,95,0.00,,BKN110,0.00,VWS V14.01,2013-08-06 09:56:00,
2013-08-06 05:01:00,56.0,54.6,29.74,West,280,0.0,0.0,95,0.00,,SCT110,0.00,VWS V14.01,2013-08-06 10:01:00,
2013-08-06 05:06:00,55.9,54.5,29.75,West,277,1.0,1.0,95,0.00,,SCT110,0.00,VWS V14.01,2013-08-06 10:06:00,
2013-08-06 05:11:00,55.9,54.8,29.75,West,278,2.0,3.0,96,0.00,,SCT110,0.00,VWS V14.01,2013-08-06 10:11:00,
2013-08-06 05:16:00,55.8,54.7,29.75,West,271,2.0,3.0,96,0.00,,BKN110,0.00,VWS V14.01,2013-08-06 10:16:00,
2013-08-06 05:21:00,55.8,54.7,29.75,West,260,1.0,3.0,96,0.00,,SCT110,0.00,VWS V14.01,2013-08-06 10:21:00,
2013-08-06 05:26:00,55.6,54.2,29.75,WSW,253,1.0,3.0,95,0.00,,SCT110,0.00,VWS V14.01,2013-08-06 10:26:00,
2013-08-06 05:31:00,55.5,54.4,29.76,WSW,256,2.0,2.0,96,0.00,,SCT110,0.00,VWS V14.01,2013-08-06 10:31:00,
2013-08-06 05:36:00,55.4,54.3,29.76,West,279,2.0,2.0,96,0.00,,BKN120,0.00,VWS V14.01,2013-08-06 10:36:00,
2013-08-06 05:41:00,55.3,54.2,29.76,WSW,257,3.0,3.0,96,0.00,,BKN120,0.00,VWS V14.01,2013-08-06 10:41:00,
2013-08-06 05:46:00,55.1,54.0,29.76,West,268,0.0,3.0,96,0.00,,BKN120,0.00,VWS V14.01,2013-08-06 10:46:00,
2013-08-06 05:51:00,55.1,54.0,29.76,West,269,0.0,3.0,96,0.00,,OVC120,0.00,VWS V14.01,2013-08-06 10:51:00,
2013-08-06 05:56:00,55.2,54.1,29.76,West,271,0.0,3.0,96,0.00,,OVC120,0.00,VWS V14.01,2013-08-06 10:56:00,
2013-08-06 06:01:00,55.2,54.1,29.76,West,271,0.0,0.0,96,0.00,,OVC120,0.00,VWS V14.01,2013-08-06 11:01:00,
2013-08-06 06:06:00,55.2,54.1,29.76,West,271,0.0,1.0,96,0.00,,OVC120,0.00,VWS V14.01,2013-08-06 11:06:00,
2013-08-06 06:11:00,55.2,54.1,29.76,West,259,1.0,1.0,96,0.00,,OVC120,0.00,VWS V14.01,2013-08-06 11:11:00,
2013-08-06 06:16:00,55.3,54.2,29.76,West,267,0.0,1.0,96,0.00,,BKN120,0.00,VWS V14.01,2013-08-06 11:16:00,
2013-08-06 06:21:00,55.4,54.3,29.76,West,259,1.0,1.0,96,0.00,,OVC120,0.00,VWS V14.01,2013-08-06 11:21:00,
2013-08-06 06:26:00,55.4,54.3,29.75,West,260,0.0,1.0,96,0.00,,OVC120,0.00,VWS V14.01,2013-08-06 11:26:00,
2013-08-06 06:31:00,55.3,54.2,29.75,West,260,0.0,0.0,96,0.00,,OVC120,0.00,VWS V14.01,2013-08-06 11:31:00,
2013-08-06 06:36:00,55.3,54.2,29.76,WSW,253,1.0,1.0,96,0.00,,SCT120,0.00,VWS V14.01,2013-08-06 11:36:00,
2013-08-06 06:41:00,55.2,54.1,29.75,WSW,253,0.0,1.0,96,0.00,,SCT120,0.00,VWS V14.01,2013-08-06 11:41:00,
2013-08-06 06:46:00,55.2,54.1,29.76,WSW,253,0.0,1.0,96,0.00,,SCT120,0.00,VWS V14.01,2013-08-06 11:46:00,
2013-08-06 06:51:00,55.4,54.3,29.76,West,271,1.0,1.0,96,0.00,,CLR,0.00,VWS V14.01,2013-08-06 11:51:00,
2013-08-06 06:56:00,55.3,54.2,29.77,WSW,255,1.0,3.0,96,0.00,,CLR,0.00,VWS V14.01,2013-08-06 11:56:00,
2013-08-06 07:01:00,55.2,54.1,29.77,WSW,257,1.0,2.0,96,0.00,,BKN110,0.00,VWS V14.01,2013-08-06 12:01:00,
2013-08-06 07:06:00,55.3,54.2,29.77,West,268,1.0,2.0,96,0.00,,CLR,0.00,VWS V14.01,2013-08-06 12:06:00,
2013-08-06 07:11:00,55.4,54.6,29.77,West,280,1.0,2.0,97,0.00,,CLR,0.00,VWS V14.01,2013-08-06 12:11:00,
2013-08-06 07:16:00,55.6,54.8,29.77,West,271,0.0,2.0,97,0.00,,CLR,0.00,VWS V14.01,2013-08-06 12:16:00,
2013-08-06 07:21:00,55.7,54.9,29.76,WSW,248,0.0,2.0,97,0.00,,CLR,0.00,VWS V14.01,2013-08-06 12:21:00,
2013-08-06 07:26:00,55.8,55.0,29.76,WSW,252,1.0,2.0,97,0.00,,CLR,0.00,VWS V14.01,2013-08-06 12:26:00,
2013-08-06 07:31:00,56.0,55.2,29.76,WSW,252,0.0,2.0,97,0.00,,CLR,0.00,VWS V14.01,2013-08-06 12:31:00,
2013-08-06 07:36:00,56.2,55.4,29.76,WSW,252,0.0,2.0,97,0.00,,CLR,0.00,VWS V14.01,2013-08-06 12:36:00,
2013-08-06 07:41:00,56.4,55.6,29.77,WSW,257,0.0,2.0,97,0.00,,CLR,0.00,VWS V14.01,2013-08-06 12:41:00,
2013-08-06 07:46:00,56.4,55.6,29.77,West,270,0.0,2.0,97,0.00,,CLR,0.00,VWS V14.01,2013-08-06 12:46:00,
2013-08-06 07:51:00,56.6,55.8,29.77,West,264,1.0,2.0,97,0.00,,CLR,0.00,VWS V14.01,2013-08-06 12:51:00,
2013-08-06 07:56:00,56.9,56.1,29.77,West,277,1.0,2.0,97,0.00,,CLR,0.00,VWS V14.01,2013-08-06 12:56:00,
2013-08-06 08:01:00,57.2,56.4,29.77,West,262,1.0,1.0,97,0.00,,CLR,0.00,VWS V14.01,2013-08-06 13:01:00,
2013-08-06 08:06:00,57.3,56.2,29.77,WSW,255,0.0,2.0,96,0.00,,CLR,0.00,VWS V14.01,2013-08-06 13:06:00,
2013-08-06 08:11:00,57.5,56.4,29.77,WSW,255,1.0,3.0,96,0.00,,CLR,0.00,VWS V14.01,2013-08-06 13:11:00,
2013-08-06 08:16:00,57.5,56.4,29.77,West,269,1.0,3.0,96,0.00,,CLR,0.00,VWS V14.01,2013-08-06 13:16:00,
2013-08-06 08:21:00,57.7,56.6,29.77,West,260,1.0,4.0,96,0.00,,CLR,0.00,VWS V14.01,2013-08-06 13:21:00,
2013-08-06 08:26:00,58.0,56.9,29.77,WSW,244,0.0,4.0,96,0.00,,CLR,0.00,VWS V14.01,2013-08-06 13:26:00,
2013-08-06 08:31:00,58.4,57.3,29.77,WSW,257,1.0,2.0,96,0.00,,CLR,0.00,VWS V14.01,2013-08-06 13:31:00,
2013-08-06 08:36:00,58.7,57.6,29.77,WSW,246,0.0,2.0,96,0.00,,CLR,0.00,VWS V14.01,2013-08-06 13:36:00,
2013-08-06 08:41:00,59.2,58.1,29.77,WSW,238,1.0,2.0,96,0.00,,CLR,0.00,VWS V14.01,2013-08-06 13:41:00,
2013-08-06 08:46:00,59.5,58.1,29.76,SW,232,1.0,2.0,95,0.00,,CLR,0.00,VWS V14.01,2013-08-06 13:46:00,
2013-08-06 08:51:00,59.6,58.2,29.76,WSW,255,0.0,2.0,95,0.00,,CLR,0.00,VWS V14.01,2013-08-06 13:51:00,
2013-08-06 08:56:00,60.0,58.6,29.77,West,271,0.0,2.0,95,0.00,,CLR,0.00,VWS V14.01,2013-08-06 13:56:00,
2013-08-06 09:01:00,60.3,58.6,29.76,West,276,0.0,1.0,94,0.00,,CLR,0.00,VWS V14.01,2013-08-06 14:01:00,
2013-08-06 09:06:00,60.5,58.5,29.76,WSW,253,0.0,1.0,93,0.00,,CLR,0.00,VWS V14.01,2013-08-06 14:06:00,
2013-08-06 09:11:00,60.8,58.5,29.76,WSW,253,1.0,2.0,92,0.00,,CLR,0.00,VWS V14.01,2013-08-06 14:11:00,
2013-08-06 09:16:00,61.2,58.9,29.77,WSW,256,0.0,2.0,92,0.00,,CLR,0.00,VWS V14.01,2013-08-06 14:16:00,
2013-08-06 09:21:00,61.6,59.0,29.77,SW,225,0.0,2.0,91,0.00,,CLR,0.00,VWS V14.01,2013-08-06 14:21:00,
2013-08-06 09:26:00,61.9,58.9,29.77,WSW,252,2.0,2.0,90,0.00,,CLR,0.00,VWS V14.01,2013-08-06 14:26:00,
2013-08-06 09:31:00,62.2,59.2,29.77,WSW,257,0.0,0.0,90,0.00,,CLR,0.00,VWS V14.01,2013-08-06 14:31:00,
2013-08-06 09:36:00,62.7,59.4,29.77,WSW,240,0.0,1.0,89,0.00,,CLR,0.00,VWS V14.01,2013-08-06 14:36:00,
2013-08-06 09:41:00,63.1,59.5,29.77,SW,235,0.0,2.0,88,0.00,,CLR,0.00,VWS V14.01,2013-08-06 14:41:00,
2013-08-06 09:46:00,63.5,59.6,29.77,West,266,1.0,2.0,87,0.00,,CLR,0.00,VWS V14.01,2013-08-06 14:46:00,
2013-08-06 09:51:00,63.9,60.0,29.77,West,269,0.0,2.0,87,0.00,,CLR,0.00,VWS V14.01,2013-08-06 14:51:00,
2013-08-06 09:56:00,64.4,60.1,29.77,SSW,204,2.0,2.0,86,0.00,,CLR,0.00,VWS V14.01,2013-08-06 14:56:00,
2013-08-06 10:01:00,64.7,60.4,29.77,SSW,211,1.0,1.0,86,0.00,,CLR,0.00,VWS V14.01,2013-08-06 15:01:00,
2013-08-06 10:06:00,65.1,60.5,29.77,West,263,0.0,3.0,85,0.00,,CLR,0.00,VWS V14.01,2013-08-06 15:06:00,
2013-08-06 10:11:00,65.2,60.2,29.77,SSW,205,1.0,3.0,84,0.00,,CLR,0.00,VWS V14.01,2013-08-06 15:11:00,
2013-08-06 10:16:00,65.6,60.6,29.76,SSW,197,1.0,3.0,84,0.00,,CLR,0.00,VWS V14.01,2013-08-06 15:16:00,
2013-08-06 10:21:00,65.9,60.6,29.76,West,280,0.0,3.0,83,0.00,,CLR,0.00,VWS V14.01,2013-08-06 15:21:00,
2013-08-06 10:26:00,66.3,61.0,29.76,South,169,2.0,3.0,83,0.00,,CLR,0.00,VWS V14.01,2013-08-06 15:26:00,
2013-08-06 10:31:00,66.9,60.9,29.76,SSE,158,2.0,3.0,81,0.00,,CLR,0.00,VWS V14.01,2013-08-06 15:31:00,
2013-08-06 10:36:00,67.5,61.1,29.76,SW,218,0.0,3.0,80,0.00,,CLR,0.00,VWS V14.01,2013-08-06 15:36:00,
2013-08-06 10:41:00,68.3,61.5,29.75,South,172,2.0,3.0,79,0.00,,CLR,0.00,VWS V14.01,2013-08-06 15:41:00,
2013-08-06 10:46:00,68.6,61.8,29.75,SSW,213,1.0,3.0,79,0.00,,CLR,0.00,VWS V14.01,2013-08-06 15:46:00,
2013-08-06 10:51:00,69.5,62.3,29.76,South,169,1.0,3.0,78,0.00,,CLR,0.00,VWS V14.01,2013-08-06 15:51:00,
2013-08-06 10:56:00,69.6,62.4,29.75,South,189,3.0,3.0,78,0.00,,CLR,0.00,VWS V14.01,2013-08-06 15:56:00,
2013-08-06 11:01:00,69.8,62.3,29.75,ESE,110,1.0,2.0,77,0.00,,CLR,0.00,VWS V14.01,2013-08-06 16:01:00,
2013-08-06 11:06:00,70.1,61.8,29.75,SSE,155,1.0,4.0,75,0.00,,CLR,0.00,VWS V14.01,2013-08-06 16:06:00,
2013-08-06 11:11:00,70.1,61.8,29.75,SSE,153,0.0,4.0,75,0.00,,CLR,0.00,VWS V14.01,2013-08-06 16:11:00,
2013-08-06 11:15:00,70.2,61.9,29.75,SSE,155,0.0,4.0,75,0.00,,CLR,0.00,VWS V14.01,2013-08-06 16:15:00,
2013-08-06 11:20:00,70.4,61.7,29.75,SSW,212,0.0,4.0,74,0.00,,CLR,0.00,VWS V14.01,2013-08-06 16:20:00,
2013-08-06 11:25:00,70.7,62.0,29.75,SSW,205,2.0,4.0,74,0.00,,CLR,0.00,VWS V14.01,2013-08-06 16:25:00,
2013-08-06 11:30:00,70.9,61.8,29.75,SE,129,0.0,2.0,73,0.00,,CLR,0.00,VWS V14.01,2013-08-06 16:30:00,
2013-08-06 11:35:00,71.3,62.2,29.75,SSE,151,0.0,3.0,73,0.00,,CLR,0.00,VWS V14.01,2013-08-06 16:35:00,
2013-08-06 11:40:00,71.1,61.6,29.76,SE,141,0.0,3.0,72,0.00,,CLR,0.00,VWS V14.01,2013-08-06 16:40:00,
2013-08-06 11:45:00,70.9,61.8,29.76,West,264,0.0,3.0,73,0.00,,CLR,0.00,VWS V14.01,2013-08-06 16:45:00,
2013-08-06 11:50:00,70.5,61.8,29.77,WNW,286,2.0,3.0,74,0.00,,SCT095,0.00,VWS V14.01,2013-08-06 16:50:00,
2013-08-06 11:55:00,69.8,61.2,29.79,West,276,2.0,3.0,74,0.00,,SCT095,0.00,VWS V14.01,2013-08-06 16:55:00,
2013-08-06 12:00:00,69.2,61.7,29.79,West,276,1.0,2.0,77,0.05,,SCT095,0.05,VWS V14.01,2013-08-06 17:00:00,
2013-08-06 12:05:00,67.8,61.8,29.78,West,259,0.0,4.0,81,0.08,,SCT095,0.08,VWS V14.01,2013-08-06 17:05:00,
2013-08-06 12:10:00,66.9,62.2,29.77,WSW,258,0.0,4.0,85,0.09,,SCT095,0.09,VWS V14.01,2013-08-06 17:10:00,
2013-08-06 12:15:00,67.1,63.4,29.76,SSW,194,1.0,4.0,88,0.09,,SCT095,0.09,VWS V14.01,2013-08-06 17:15:00,
2013-08-06 12:20:00,67.6,63.6,29.76,South,177,1.0,4.0,87,0.09,,SCT095,0.09,VWS V14.01,2013-08-06 17:20:00,
2013-08-06 12:25:00,68.1,63.8,29.75,SW,218,0.0,4.0,86,0.09,,SCT095,0.09,VWS V14.01,2013-08-06 17:25:00,
2013-08-06 12:27:00,68.1,63.4,29.75,SSW,201,0.0,4.0,85,0.09,,SCT095,0.09,VWS V14.01,2013-08-06 17:27:00,
2013-08-06 12:32:00,68.3,63.6,29.75,SE,135,0.0,2.0,85,0.09,,-RA,0.09,VWS V14.01,2013-08-06 17:32:00,
2013-08-06 12:37:00,67.8,62.5,29.75,SSE,155,0.0,4.0,83,0.09,,-RA,0.09,VWS V14.01,2013-08-06 17:37:00,
2013-08-06 12:42:00,67.5,62.5,29.75,SSE,155,0.0,4.0,84,0.09,,-RA,0.09,VWS V14.01,2013-08-06 17:42:00,
2013-08-06 12:47:00,67.4,62.7,29.75,SSW,207,0.0,4.0,85,0.09,,BKN095,0.09,VWS V14.01,2013-08-06 17:47:00,
2013-08-06 12:52:00,67.2,62.9,29.74,SSE,165,0.0,4.0,86,0.09,,OVC090,0.09,VWS V14.01,2013-08-06 17:52:00,
2013-08-06 12:57:00,67.2,61.9,29.74,SSE,167,2.0,4.0,83,0.09,,OVC090,0.09,VWS V14.01,2013-08-06 17:57:00,
2013-08-06 13:02:00,67.1,62.1,29.74,SE,142,1.0,3.0,84,0.09,,OVC090,0.09,VWS V14.01,2013-08-06 18:02:00,
2013-08-06 13:07:00,67.2,62.5,29.73,ESE,120,2.0,3.0,85,0.09,,OVC090,0.09,VWS V14.01,2013-08-06 18:07:00,
2013-08-06 13:12:00,67.4,63.1,29.73,ESE,120,0.0,4.0,86,0.09,,OVC090,0.09,VWS V14.01,2013-08-06 18:12:00,
2013-08-06 13:17:00,67.7,63.4,29.74,NE,43,1.0,4.0,86,0.09,,BKN095,0.09,VWS V14.01,2013-08-06 18:17:00,
2013-08-06 13:22:00,67.4,63.4,29.77,ENE,61,2.0,4.0,87,0.09,,OVC090,0.09,VWS V14.01,2013-08-06 18:22:00,
2013-08-06 13:27:00,66.6,62.0,29.74,SE,124,3.0,6.0,85,0.09,,OVC090,0.09,VWS V14.01,2013-08-06 18:27:00,
2013-08-06 13:32:00,66.7,62.0,29.71,SE,143,2.0,6.0,85,0.00,,OVC070,0.09,VWS V14.01,2013-08-06 18:32:00,
2013-08-06 13:37:00,68.0,63.3,29.74,WSW,246,0.0,6.0,85,0.00,,OVC070,0.09,VWS V14.01,2013-08-06 18:37:00,
2013-08-06 13:42:00,68.3,62.9,29.73,East,85,0.0,7.0,83,0.00,,OVC070,0.09,VWS V14.01,2013-08-06 18:42:00,
2013-08-06 13:47:00,67.6,62.3,29.73,ENE,72,3.0,9.0,83,0.00,,OVC070,0.09,VWS V14.01,2013-08-06 18:47:00,
2013-08-06 13:52:00,67.8,62.1,29.72,East,98,3.0,9.0,82,0.00,,BKN046,0.09,VWS V14.01,2013-08-06 18:52:00,
2013-08-06 13:57:00,68.9,63.2,29.72,East,80,4.0,9.0,82,0.00,,OVC070,0.09,VWS V14.01,2013-08-06 18:57:00,
2013-08-06 14:02:00,69.4,63.3,29.72,ESE,118,3.0,9.0,81,0.00,,BKN046,0.09,VWS V14.01,2013-08-06 19:02:00,
2013-08-06 14:07:00,69.6,62.4,29.71,ESE,104,3.0,10.0,78,0.00,,BKN046,0.09,VWS V14.01,2013-08-06 19:07:00,
2013-08-06 14:12:00,69.9,63.1,29.71,ESE,108,2.0,10.0,79,0.00,,BKN046,0.09,VWS V14.01,2013-08-06 19:12:00,
2013-08-06 14:17:00,70.1,62.6,29.71,SE,143,4.0,10.0,77,0.00,,OVC070,0.09,VWS V14.01,2013-08-06 19:17:00,
2013-08-06 14:22:00,70.4,61.7,29.71,ESE,102,6.0,10.0,74,0.00,,BKN046,0.09,VWS V14.01,2013-08-06 19:22:00,
2013-08-06 14:27:00,70.7,61.6,29.70,ESE,120,2.0,10.0,73,0.00,,BKN046,0.09,VWS V14.01,2013-08-06 19:27:00,
2013-08-06 14:32:00,71.0,61.9,29.70,ESE,120,4.0,7.0,73,0.00,,BKN046,0.09,VWS V14.01,2013-08-06 19:32:00,
2013-08-06 14:37:00,71.4,61.9,29.70,ESE,103,3.0,8.0,72,0.00,,OVC050,0.09,VWS V14.01,2013-08-06 19:37:00,
2013-08-06 14:42:00,71.4,62.3,29.70,East,89,4.0,8.0,73,0.00,,OVC050,0.09,VWS V14.01,2013-08-06 19:42:00,
2013-08-06 14:47:00,71.8,63.1,29.69,ESE,102,8.0,10.0,74,0.00,,OVC050,0.09,VWS V14.01,2013-08-06 19:47:00,
2013-08-06 14:52:00,72.2,63.5,29.69,ESE,120,2.0,10.0,74,0.00,,SCT050,0.09,VWS V14.01,2013-08-06 19:52:00,
2013-08-06 14:57:00,72.8,62.9,29.69,SSE,167,2.0,10.0,71,0.00,,BKN070,0.09,VWS V14.01,2013-08-06 19:57:00,
2013-08-06 15:02:00,73.1,62.7,29.69,ESE,122,3.0,6.0,70,0.00,,SCT050,0.09,VWS V14.01,2013-08-06 20:02:00,
2013-08-06 15:07:00,73.1,63.5,29.69,South,171,4.0,6.0,72,0.00,,SCT050,0.09,VWS V14.01,2013-08-06 20:07:00,
2013-08-06 15:12:00,73.6,63.6,29.69,SE,131,2.0,6.0,71,0.00,,SCT050,0.09,VWS V14.01,2013-08-06 20:12:00,
2013-08-06 15:17:00,73.9,64.3,29.68,ESE,105,3.0,6.0,72,0.00,,BKN070,0.09,VWS V14.01,2013-08-06 20:17:00,
2013-08-06 15:22:00,74.2,64.2,29.69,SSE,149,2.0,6.0,71,0.00,,SCT050,0.09,VWS V14.01,2013-08-06 20:22:00,
2013-08-06 15:27:00,74.5,65.3,29.69,SE,143,2.0,6.0,73,0.00,,SCT050,0.09,VWS V14.01,2013-08-06 20:27:00,
2013-08-06 15:32:00,74.7,65.1,29.69,SSW,212,2.0,5.0,72,0.00,,SCT050,0.09,VWS V14.01,2013-08-06 20:32:00,
2013-08-06 15:37:00,75.0,66.2,29.68,ESE,114,2.0,5.0,74,0.00,,SCT120,0.09,VWS V14.01,2013-08-06 20:37:00,
2013-08-06 15:42:00,75.4,66.2,29.68,East,94,5.0,5.0,73,0.00,,SCT120,0.09,VWS V14.01,2013-08-06 20:42:00,
2013-08-06 15:47:00,75.7,66.8,29.68,SSW,193,1.0,5.0,74,0.00,,SCT120,0.09,VWS V14.01,2013-08-06 20:47:00,
2013-08-06 15:52:00,76.0,66.3,29.68,SSE,167,2.0,5.0,72,0.00,,BKN120,0.09,VWS V14.01,2013-08-06 20:52:00,
2013-08-06 15:57:00,76.0,66.7,29.68,SSE,153,0.0,5.0,73,0.00,,CLR,0.09,VWS V14.01,2013-08-06 20:57:00,
2013-08-06 16:02:00,76.2,66.9,29.68,ESE,106,1.0,2.0,73,0.00,,BKN120,0.09,VWS V14.01,2013-08-06 21:02:00,
2013-08-06 16:07:00,75.9,67.0,29.68,ESE,107,1.0,4.0,74,0.00,,BKN120,0.09,VWS V14.01,2013-08-06 21:07:00,
2013-08-06 16:12:00,76.0,66.7,29.67,ESE,112,2.0,4.0,73,0.00,,BKN120,0.09,VWS V14.01,2013-08-06 21:12:00,
2013-08-06 16:17:00,76.4,67.5,29.67,East,79,4.0,4.0,74,0.00,,CLR,0.09,VWS V14.01,2013-08-06 21:17:00,
2013-08-06 16:22:00,76.5,66.8,29.67,NE,53,3.0,5.0,72,0.00,,BKN120,0.09,VWS V14.01,2013-08-06 21:22:00,
2013-08-06 16:27:00,76.1,66.8,29.67,ENE,70,3.0,5.0,73,0.00,,BKN120,0.09,VWS V14.01,2013-08-06 21:27:00,
2013-08-06 16:32:00,76.1,67.2,29.68,ENE,72,0.0,3.0,74,0.00,,OVC033,0.09,VWS V14.01,2013-08-06 21:32:00,
2013-08-06 16:37:00,76.2,67.3,29.68,East,83,1.0,3.0,74,0.00,,OVC030,0.09,VWS V14.01,2013-08-06 21:37:00,
2013-08-06 16:42:00,76.2,67.7,29.67,ESE,106,1.0,3.0,75,0.00,,OVC030,0.09,VWS V14.01,2013-08-06 21:42:00,
2013-08-06 16:47:00,76.3,67.8,29.67,ESE,113,1.0,3.0,75,0.00,,OVC030,0.09,VWS V14.01,2013-08-06 21:47:00,
2013-08-06 16:52:00,76.5,68.0,29.66,East,98,3.0,4.0,75,0.00,,BKN042,0.09,VWS V14.01,2013-08-06 21:52:00,
2013-08-06 16:57:00,76.8,67.9,29.66,ESE,118,4.0,6.0,74,0.00,,BKN042,0.09,VWS V14.01,2013-08-06 21:57:00,
2013-08-06 17:02:00,77.4,68.1,29.65,East,89,4.0,5.0,73,0.00,,BKN042,0.09,VWS V14.01,2013-08-06 22:02:00,
2013-08-06 17:07:00,77.2,68.3,29.66,East,89,3.0,5.0,74,0.00,,BKN042,0.09,VWS V14.01,2013-08-06 22:07:00,
2013-08-06 17:12:00,77.1,68.6,29.65,NE,55,2.0,5.0,75,0.00,,BKN042,0.09,VWS V14.01,2013-08-06 22:12:00,
2013-08-06 17:17:00,77.0,68.5,29.65,ENE,74,2.0,5.0,75,0.00,,OVC033,0.09,VWS V14.01,2013-08-06 22:17:00,
2013-08-06 17:22:00,77.0,68.5,29.65,East,82,3.0,5.0,75,0.00,,BKN042,0.09,VWS V14.01,2013-08-06 22:22:00,
2013-08-06 17:27:00,76.8,68.7,29.65,East,94,0.0,5.0,76,0.00,,BKN042,0.09,VWS V14.01,2013-08-06 22:27:00,
2013-08-06 17:32:00,77.0,69.6,29.65,East,93,0.0,0.0,78,0.00,,BKN042,0.09,VWS V14.01,2013-08-06 22:32:00,
2013-08-06 17:37:00,76.9,69.2,29.65,East,93,1.0,2.0,77,0.00,,CLR,0.09,VWS V14.01,2013-08-06 22:37:00,
2013-08-06 17:42:00,76.7,68.9,29.65,East,82,3.0,3.0,77,0.00,,CLR,0.09,VWS V14.01,2013-08-06 22:42:00,
2013-08-06 17:47:00,76.5,69.5,29.65,ENE,61,0.0,4.0,79,0.00,,CLR,0.09,VWS V14.01,2013-08-06 22:47:00,
2013-08-06 17:52:00,76.3,68.6,29.65,East,98,3.0,4.0,77,0.00,,CLR,0.09,VWS V14.01,2013-08-06 22:52:00,
2013-08-06 17:57:00,76.0,68.7,29.65,East,79,4.0,5.0,78,0.00,,SCT045,0.09,VWS V14.01,2013-08-06 22:57:00,
2013-08-06 18:02:00,75.8,68.8,29.65,East,79,5.0,6.0,79,0.00,,CLR,0.09,VWS V14.01,2013-08-06 23:02:00,
2013-08-06 18:07:00,75.5,68.5,29.64,East,86,0.0,6.0,79,0.00,,CLR,0.09,VWS V14.01,2013-08-06 23:07:00,
2013-08-06 18:12:00,75.1,67.8,29.63,ESE,121,2.0,6.0,78,0.00,,CLR,0.09,VWS V14.01,2013-08-06 23:12:00,
2013-08-06 18:17:00,74.7,67.8,29.63,ESE,110,2.0,6.0,79,0.00,,SCT045,0.09,VWS V14.01,2013-08-06 23:17:00,
2013-08-06 18:22:00,74.6,68.0,29.63,ESE,117,0.0,6.0,80,0.00,,CLR,0.09,VWS V14.01,2013-08-06 23:22:00,
2013-08-06 18:27:00,74.6,68.0,29.63,ESE,113,0.0,6.0,80,0.00,,CLR,0.09,VWS V14.01,2013-08-06 23:27:00,
2013-08-06 18:32:00,74.9,68.7,29.62,ESE,113,0.0,0.0,81,0.00,,CLR,0.09,VWS V14.01,2013-08-06 23:32:00,
2013-08-06 18:37:00,75.5,68.9,29.61,SE,125,3.0,4.0,80,0.00,,BKN090,0.09,VWS V14.01,2013-08-06 23:37:00,
2013-08-06 18:42:00,76.2,69.6,29.62,East,94,0.0,4.0,80,0.00,,BKN090,0.09,VWS V14.01,2013-08-06 23:42:00,
2013-08-06 18:47:00,77.2,69.8,29.63,WSW,237,1.0,4.0,78,0.00,,BKN090,0.09,VWS V14.01,2013-08-06 23:47:00,
2013-08-06 18:52:00,77.9,69.3,29.63,West,267,3.0,6.0,75,0.00,,,0.09,VWS V14.01,2013-08-06 23:52:00,
2013-08-06 18:57:00,78.0,68.7,29.63,West,261,4.0,9.0,73,0.00,,CLR,0.09,VWS V14.01,2013-08-06 23:57:00,
2013-08-06 19:01:00,77.8,68.5,29.63,WNW,297,3.0,5.0,73,0.00,,,0.09,VWS V14.01,2013-08-07 00:01:00,
2013-08-06 19:06:00,77.5,68.2,29.64,West,278,4.0,7.0,73,0.00,,OVC060,0.09,VWS V14.01,2013-08-07 00:06:00,
2013-08-06 19:11:00,77.3,68.0,29.64,West,278,1.0,7.0,73,0.00,,OVC060,0.09,VWS V14.01,2013-08-07 00:11:00,
2013-08-06 19:16:00,76.9,68.4,29.64,East,95,1.0,7.0,75,0.00,,OVC060,0.09,VWS V14.01,2013-08-07 00:16:00,
2013-08-06 19:21:00,75.5,67.0,29.64,ENE,71,1.0,7.0,75,0.00,,OVC060,0.09,VWS V14.01,2013-08-07 00:21:00,
2013-08-06 19:26:00,74.2,66.2,29.64,East,81,3.0,7.0,76,0.00,,OVC060,0.09,VWS V14.01,2013-08-07 00:26:00,
2013-08-06 19:31:00,73.2,65.9,29.64,NE,43,1.0,3.0,78,0.00,,OVC060,0.09,VWS V14.01,2013-08-07 00:31:00,
2013-08-06 19:36:00,72.5,65.3,29.64,ENE,71,0.0,3.0,78,0.00,,BKN055,0.09,VWS V14.01,2013-08-07 00:36:00,
2013-08-06 19:41:00,71.9,65.0,29.65,ESE,102,0.0,3.0,79,0.00,,BKN055,0.09,VWS V14.01,2013-08-07 00:41:00,
2013-08-06 19:46:00,71.6,65.1,29.65,East,99,0.0,3.0,80,0.00,,BKN055,0.09,VWS V14.01,2013-08-07 00:46:00,
2013-08-06 19:51:00,71.1,65.0,29.65,NNE,20,0.0,4.0,81,0.00,,BKN070,0.09,VWS V14.01,2013-08-07 00:51:00,
2013-08-06 19:56:00,70.8,64.7,29.65,NNW,343,0.0,4.0,81,0.00,,BKN070,0.09,VWS V14.01,2013-08-07 00:56:00,
2013-08-06 20:02:00,70.5,64.4,29.65,ENE,61,4.0,7.0,81,0.00,,BKN070,0.09,VWS V14.01,2013-08-07 01:02:00,
2013-08-06 20:07:00,69.9,63.8,29.63,ENE,77,8.0,11.0,81,0.00,,BKN070,0.09,VWS V14.01,2013-08-07 01:07:00,
2013-08-06 20:12:00,69.4,63.7,29.64,ENE,72,0.0,11.0,82,0.00,,BKN070,0.09,VWS V14.01,2013-08-07 01:12:00,
2013-08-06 20:17:00,69.0,63.3,29.66,NNE,17,0.0,11.0,82,0.00,,OVC060,0.09,VWS V14.01,2013-08-07 01:17:00,
2013-08-06 20:22:00,68.2,62.8,29.67,NNE,33,0.0,11.0,83,0.00,,BKN070,0.09,VWS V14.01,2013-08-07 01:22:00,
2013-08-06 20:27:00,67.4,63.1,29.69,NE,44,1.0,11.0,86,0.00,,BKN070,0.09,VWS V14.01,2013-08-07 01:27:00,
2013-08-06 20:32:00,66.2,62.2,29.71,North,9,2.0,10.0,87,0.02,,BKN080,0.11,VWS V14.01,2013-08-07 01:32:00,
2013-08-06 20:37:00,65.2,62.2,29.72,NNE,15,2.0,15.0,90,0.25,,OVC110,0.34,VWS V14.01,2013-08-07 01:37:00,
2013-08-06 20:42:00,64.4,61.7,29.70,ENE,71,7.0,15.0,91,0.43,,OVC110,0.52,VWS V14.01,2013-08-07 01:42:00,
2013-08-06 20:47:00,63.8,61.4,29.71,ESE,123,1.0,15.0,92,0.49,,OVC110,0.58,VWS V14.01,2013-08-07 01:47:00,
2013-08-06 20:51:00,63.5,61.4,29.72,East,84,0.0,15.0,93,0.50,,OVC075,0.59,VWS V14.01,2013-08-07 01:51:00,
2013-08-06 20:56:00,63.4,61.3,29.71,East,100,0.0,15.0,93,0.52,,BKN080,0.61,VWS V14.01,2013-08-07 01:56:00,
2013-08-06 21:01:00,63.3,61.5,29.70,East,98,1.0,2.0,94,0.52,,OVC075,0.61,VWS V14.01,2013-08-07 02:01:00,
2013-08-06 21:06:00,63.2,61.5,29.70,ESE,104,0.0,2.0,94,0.53,,OVC075,0.62,VWS V14.01,2013-08-07 02:06:00,
2013-08-06 21:11:00,63.1,61.7,29.67,ENE,76,5.0,6.0,95,0.53,,OVC075,0.62,VWS V14.01,2013-08-07 02:11:00,
2013-08-06 21:16:00,63.0,61.5,29.66,ENE,77,4.0,8.0,95,0.53,,BKN080,0.62,VWS V14.01,2013-08-07 02:16:00,
2013-08-06 21:21:00,62.9,61.5,29.65,ESE,103,3.0,8.0,95,0.54,,OVC075,0.63,VWS V14.01,2013-08-07 02:21:00,
2013-08-06 21:26:00,62.8,61.7,29.64,ESE,103,5.0,8.0,96,0.54,,OVC075,0.63,VWS V14.01,2013-08-07 02:26:00,
2013-08-06 21:31:00,62.7,61.5,29.63,East,99,4.0,6.0,96,0.54,,OVC100,0.63,VWS V14.01,2013-08-07 02:31:00,
2013-08-06 21:36:00,62.6,61.5,29.63,ESE,103,3.0,6.0,96,0.54,,OVC110,0.63,VWS V14.01,2013-08-07 02:36:00,
2013-08-06 21:41:00,62.6,61.5,29.63,East,88,2.0,6.0,96,0.54,,OVC110,0.63,VWS V14.01,2013-08-07 02:41:00,
2013-08-06 21:46:00,62.5,61.3,29.63,East,84,0.0,6.0,96,0.54,,OVC110,0.63,VWS V14.01,2013-08-07 02:46:00,
2013-08-06 21:51:00,62.4,61.2,29.63,East,89,0.0,6.0,96,0.54,,SCT110,0.63,VWS V14.01,2013-08-07 02:51:00,
2013-08-06 21:56:00,62.4,61.2,29.64,NNE,16,0.0,6.0,96,0.54,,OVC100,0.63,VWS V14.01,2013-08-07 02:56:00,
2013-08-06 22:01:00,62.4,61.2,29.66,West,281,3.0,3.0,96,0.02,,SCT110,0.63,VWS V14.01,2013-08-07 03:01:00,
2013-08-06 22:06:00,62.4,61.2,29.67,West,264,5.0,5.0,96,0.02,,SCT110,0.63,VWS V14.01,2013-08-07 03:06:00,
2013-08-06 22:11:00,62.6,61.7,29.67,WNW,293,3.0,7.0,97,0.02,,SCT110,0.63,VWS V14.01,2013-08-07 03:11:00,
2013-08-06 22:16:00,62.7,61.8,29.67,NW,312,2.0,7.0,97,0.02,,OVC100,0.63,VWS V14.01,2013-08-07 03:16:00,
2013-08-06 22:21:00,62.6,61.7,29.68,West,281,1.0,7.0,97,0.02,,SCT110,0.63,VWS V14.01,2013-08-07 03:21:00,
2013-08-06 22:26:00,62.5,61.6,29.69,West,273,3.0,7.0,97,0.02,,SCT110,0.63,VWS V14.01,2013-08-07 03:26:00,
2013-08-06 22:31:00,62.6,61.7,29.69,West,276,1.0,5.0,97,0.00,,CLR,0.63,VWS V14.01,2013-08-07 03:31:00,
2013-08-06 22:36:00,62.8,61.9,29.70,WSW,255,2.0,5.0,97,0.00,,SCT120,0.63,VWS V14.01,2013-08-07 03:36:00,
2013-08-06 22:41:00,63.0,62.1,29.70,WNW,284,1.0,5.0,97,0.00,,SCT120,0.63,VWS V14.01,2013-08-07 03:41:00,
2013-08-06 22:46:00,63.0,62.1,29.70,West,271,1.0,5.0,97,0.00,,SCT120,0.63,VWS V14.01,2013-08-07 03:46:00,
2013-08-06 22:51:00,63.0,62.1,29.70,West,278,2.0,5.0,97,0.00,,SCT120,0.63,VWS V14.01,2013-08-07 03:51:00,
2013-08-06 22:56:00,63.0,62.1,29.70,West,269,2.0,5.0,97,0.00,,SCT120,0.63,VWS V14.01,2013-08-07 03:56:00,
2013-08-06 23:01:00,62.9,62.0,29.71,West,278,2.0,3.0,97,0.00,,SCT120,0.63,VWS V14.01,2013-08-07 04:01:00,
2013-08-06 23:06:00,62.8,61.9,29.71,WNW,285,1.0,3.0,97,0.00,,SCT120,0.63,VWS V14.01,2013-08-07 04:06:00,
2013-08-06 23:11:00,62.6,61.7,29.71,West,267,1.0,3.0,97,0.00,,SCT120,0.63,VWS V14.01,2013-08-07 04:11:00,
2013-08-06 23:16:00,62.5,61.6,29.71,West,266,1.0,3.0,97,0.00,,SCT120,0.63,VWS V14.01,2013-08-07 04:16:00,
2013-08-06 23:21:00,62.5,61.6,29.72,West,260,3.0,3.0,97,0.00,,SCT120,0.63,VWS V14.01,2013-08-07 04:21:00,
2013-08-06 23:26:00,62.4,61.5,29.72,West,275,1.0,3.0,97,0.00,,SCT120,0.63,VWS V14.01,2013-08-07 04:26:00,
2013-08-06 23:31:00,62.4,61.5,29.72,West,271,1.0,2.0,97,0.00,,SCT120,0.63,VWS V14.01,2013-08-07 04:31:00,
2013-08-06 23:36:00,62.3,61.4,29.72,West,274,2.0,3.0,97,0.00,,BKN100,0.63,VWS V14.01,2013-08-07 04:36:00,
2013-08-06 23:41:00,62.2,61.3,29.72,West,264,1.0,3.0,97,0.00,,BKN100,0.63,VWS V14.01,2013-08-07 04:41:00,
2013-08-06 23:46:00,62.2,61.3,29.71,West,278,1.0,3.0,97,0.00,,BKN100,0.63,VWS V14.01,2013-08-07 04:46:00,
2013-08-06 23:51:00,62.2,61.3,29.72,West,271,1.0,3.0,97,0.00,,BKN110,0.63,VWS V14.01,2013-08-07 04:51:00,
2013-08-06 23:56:00,62.1,61.2,29.72,West,278,1.0,3.0,97,0.00,,BKN110,0.63,VWS V14.01,2013-08-07 04:56:00,